Year,Month,Day,Hour,Minute,Value (Times are PST for temperature in C)
2020,07,01,00,00,13.00
2020,07,01,00,01,12.90
2020,07,01,00,02,12.90
2020,07,01,00,03,12.90
2020,07,01,00,04,12.90
2020,07,01,00,05,12.80
2020,07,01,00,06,12.80
2020,07,01,00,07,12.80
2020,07,01,00,08,12.70
2020,07,01,00,09,12.70
2020,07,01,00,10,12.70
2020,07,01,00,11,12.60
2020,07,01,00,12,12.60
2020,07,01,00,13,12.60
2020,07,01,00,14,12.60
2020,07,01,00,15,12.50
2020,07,01,00,16,12.50
2020,07,01,00,17,12.40
2020,07,01,00,18,12.40
2020,07,01,00,19,12.40
2020,07,01,00,20,12.40
2020,07,01,00,21,12.30
2020,07,01,00,22,12.30
2020,07,01,00,23,12.30
2020,07,01,00,24,12.20
2020,07,01,00,25,12.20
2020,07,01,00,26,12.20
2020,07,01,00,27,12.20
2020,07,01,00,28,12.10
2020,07,01,00,29,12.10
2020,07,01,00,30,12.10
2020,07,01,00,31,12.10
2020,07,01,00,32,12.00
2020,07,01,00,33,12.00
2020,07,01,00,34,12.00
2020,07,01,00,35,12.00
2020,07,01,00,36,11.90
2020,07,01,00,37,11.90
2020,07,01,00,38,11.90
2020,07,01,00,39,11.90
2020,07,01,00,40,11.80
2020,07,01,00,41,11.80
2020,07,01,00,42,11.80
2020,07,01,00,43,11.80
2020,07,01,00,44,11.80
2020,07,01,00,45,11.70
2020,07,01,00,46,11.70
2020,07,01,00,47,11.70
2020,07,01,00,48,11.70
2020,07,01,00,49,11.70
2020,07,01,00,50,11.70
2020,07,01,00,51,11.60
2020,07,01,00,52,11.60
2020,07,01,00,53,11.60
2020,07,01,00,54,11.60
2020,07,01,00,55,11.60
2020,07,01,00,56,11.50
2020,07,01,00,57,11.50
2020,07,01,00,58,11.50
2020,07,01,00,59,11.50
2020,07,01,01,00,11.50
2020,07,01,01,01,11.50
2020,07,01,01,02,11.50
2020,07,01,01,03,11.50
2020,07,01,01,04,11.40
2020,07,01,01,05,11.40
2020,07,01,01,06,11.40
2020,07,01,01,07,11.40
2020,07,01,01,08,11.40
2020,07,01,01,09,11.40
2020,07,01,01,10,11.40
2020,07,01,01,11,11.30
2020,07,01,01,12,11.30
2020,07,01,01,13,11.30
2020,07,01,01,14,11.30
2020,07,01,01,15,11.30
2020,07,01,01,16,11.20
2020,07,01,01,17,11.20
2020,07,01,01,18,11.20
2020,07,01,01,19,11.20
2020,07,01,01,20,11.20
2020,07,01,01,21,11.10
2020,07,01,01,22,11.10
2020,07,01,01,23,11.10
2020,07,01,01,24,11.10
2020,07,01,01,25,11.10
2020,07,01,01,26,11.10
2020,07,01,01,27,11.00
2020,07,01,01,28,11.00
2020,07,01,01,29,11.00
2020,07,01,01,30,11.00
2020,07,01,01,31,11.00
2020,07,01,01,32,11.00
2020,07,01,01,33,11.00
2020,07,01,01,34,11.00
2020,07,01,01,35,11.00
2020,07,01,01,36,11.00
2020,07,01,01,37,11.00
2020,07,01,01,38,11.00
2020,07,01,01,39,11.00
2020,07,01,01,40,11.00
2020,07,01,01,41,11.00
2020,07,01,01,42,11.00
2020,07,01,01,43,11.00
2020,07,01,01,44,11.00
2020,07,01,01,45,10.90
2020,07,01,01,46,10.90
2020,07,01,01,47,10.90
2020,07,01,01,48,10.90
2020,07,01,01,49,10.90
2020,07,01,01,50,10.80
2020,07,01,01,51,10.80
2020,07,01,01,52,10.80
2020,07,01,01,53,10.80
2020,07,01,01,54,10.80
2020,07,01,01,55,10.80
2020,07,01,01,56,10.80
2020,07,01,01,57,10.70
2020,07,01,01,58,10.70
2020,07,01,01,59,10.70
2020,07,01,02,00,10.70
2020,07,01,02,01,10.70
2020,07,01,02,02,10.70
2020,07,01,02,03,10.70
2020,07,01,02,04,10.70
2020,07,01,02,05,10.70
2020,07,01,02,06,10.70
2020,07,01,02,07,10.70
2020,07,01,02,08,10.70
2020,07,01,02,09,10.60
2020,07,01,02,10,10.60
2020,07,01,02,11,10.60
2020,07,01,02,12,10.60
2020,07,01,02,13,10.60
2020,07,01,02,14,10.60
2020,07,01,02,15,10.60
2020,07,01,02,16,10.50
2020,07,01,02,17,10.60
2020,07,01,02,18,10.60
2020,07,01,02,19,10.60
2020,07,01,02,20,10.60
2020,07,01,02,21,10.60
2020,07,01,02,22,10.60
2020,07,01,02,23,10.60
2020,07,01,02,24,10.60
2020,07,01,02,25,10.60
2020,07,01,02,26,10.50
2020,07,01,02,27,10.50
2020,07,01,02,28,10.50
2020,07,01,02,29,10.50
2020,07,01,02,30,10.50
2020,07,01,02,31,10.40
2020,07,01,02,32,10.40
2020,07,01,02,33,10.40
2020,07,01,02,34,10.40
2020,07,01,02,35,10.40
2020,07,01,02,36,10.40
2020,07,01,02,37,10.30
2020,07,01,02,38,10.30
2020,07,01,02,39,10.30
2020,07,01,02,40,10.30
2020,07,01,02,41,10.20
2020,07,01,02,42,10.20
2020,07,01,02,43,10.20
2020,07,01,02,44,10.20
2020,07,01,02,45,10.20
2020,07,01,02,46,10.20
2020,07,01,02,47,10.20
2020,07,01,02,48,10.10
2020,07,01,02,49,10.10
2020,07,01,02,50,10.10
2020,07,01,02,51,10.10
2020,07,01,02,52,10.10
2020,07,01,02,53,10.10
2020,07,01,02,54,10.10
2020,07,01,02,55,10.10
2020,07,01,02,56,10.10
2020,07,01,02,57,10.10
2020,07,01,02,58,10.10
2020,07,01,02,59,10.10
2020,07,01,03,00,10.10
2020,07,01,03,01,10.10
2020,07,01,03,02,10.10
2020,07,01,03,03,10.00
2020,07,01,03,04,10.00
2020,07,01,03,05,10.00
2020,07,01,03,06,10.00
2020,07,01,03,07,10.00
2020,07,01,03,08,10.00
2020,07,01,03,09,10.00
2020,07,01,03,10,9.90
2020,07,01,03,11,9.90
2020,07,01,03,12,9.90
2020,07,01,03,13,9.90
2020,07,01,03,14,9.90
2020,07,01,03,15,9.90
2020,07,01,03,16,9.90
2020,07,01,03,17,9.90
2020,07,01,03,18,9.90
2020,07,01,03,19,9.80
2020,07,01,03,20,9.80
2020,07,01,03,21,9.80
2020,07,01,03,22,9.80
2020,07,01,03,23,9.80
2020,07,01,03,24,9.70
2020,07,01,03,25,9.70
2020,07,01,03,26,9.70
2020,07,01,03,27,9.70
2020,07,01,03,28,9.60
2020,07,01,03,29,9.60
2020,07,01,03,30,9.60
2020,07,01,03,31,9.60
2020,07,01,03,32,9.50
2020,07,01,03,33,9.50
2020,07,01,03,34,9.50
2020,07,01,03,35,9.40
2020,07,01,03,36,9.40
2020,07,01,03,37,9.40
2020,07,01,03,38,9.30
2020,07,01,03,39,9.30
2020,07,01,03,40,9.30
2020,07,01,03,41,9.30
2020,07,01,03,42,9.20
2020,07,01,03,43,9.20
2020,07,01,03,44,9.20
2020,07,01,03,45,9.10
2020,07,01,03,46,9.10
2020,07,01,03,47,9.10
2020,07,01,03,48,9.00
2020,07,01,03,49,9.00
2020,07,01,03,50,8.90
2020,07,01,03,51,8.90
2020,07,01,03,52,8.90
2020,07,01,03,53,8.80
2020,07,01,03,54,8.80
2020,07,01,03,55,8.80
2020,07,01,03,56,8.70
2020,07,01,03,57,8.70
2020,07,01,03,58,8.70
2020,07,01,03,59,8.60
2020,07,01,04,00,8.60
2020,07,01,04,01,8.50
2020,07,01,04,02,8.50
2020,07,01,04,03,8.50
2020,07,01,04,04,8.40
2020,07,01,04,05,8.40
2020,07,01,04,06,8.40
2020,07,01,04,07,8.30
2020,07,01,04,08,8.30
2020,07,01,04,09,8.30
2020,07,01,04,10,8.30
2020,07,01,04,11,8.30
2020,07,01,04,12,8.20
2020,07,01,04,13,8.20
2020,07,01,04,14,8.20
2020,07,01,04,15,8.10
2020,07,01,04,16,8.10
2020,07,01,04,17,8.10
2020,07,01,04,18,8.10
2020,07,01,04,19,8.00
2020,07,01,04,20,8.00
2020,07,01,04,21,8.00
2020,07,01,04,22,7.90
2020,07,01,04,23,7.90
2020,07,01,04,24,7.90
2020,07,01,04,25,7.90
2020,07,01,04,26,7.90
2020,07,01,04,27,7.80
2020,07,01,04,28,7.80
2020,07,01,04,29,7.80
2020,07,01,04,30,7.80
2020,07,01,04,31,7.80
2020,07,01,04,32,7.80
2020,07,01,04,33,7.70
2020,07,01,04,34,7.70
2020,07,01,04,35,7.70
2020,07,01,04,36,7.70
2020,07,01,04,37,7.70
2020,07,01,04,38,7.60
2020,07,01,04,39,7.60
2020,07,01,04,40,7.60
2020,07,01,04,41,7.60
2020,07,01,04,42,7.60
2020,07,01,04,43,7.60
2020,07,01,04,44,7.50
2020,07,01,04,45,7.50
2020,07,01,04,46,7.50
2020,07,01,04,47,7.40
2020,07,01,04,48,7.40
2020,07,01,04,49,7.40
2020,07,01,04,50,7.40
2020,07,01,04,51,7.40
2020,07,01,04,52,7.40
2020,07,01,04,53,7.40
2020,07,01,04,54,7.40
2020,07,01,04,55,7.40
2020,07,01,04,56,7.40
2020,07,01,04,57,7.40
2020,07,01,04,58,7.40
2020,07,01,04,59,7.40
2020,07,01,05,00,7.30
2020,07,01,05,01,7.30
2020,07,01,05,02,7.30
2020,07,01,05,03,7.30
2020,07,01,05,04,7.30
2020,07,01,05,05,7.30
2020,07,01,05,06,7.30
2020,07,01,05,07,7.30
2020,07,01,05,08,7.30
2020,07,01,05,09,7.20
2020,07,01,05,10,7.20
2020,07,01,05,11,7.20
2020,07,01,05,12,7.20
2020,07,01,05,13,7.20
2020,07,01,05,14,7.10
2020,07,01,05,15,7.10
2020,07,01,05,16,7.10
2020,07,01,05,17,7.10
2020,07,01,05,18,7.10
2020,07,01,05,19,7.00
2020,07,01,05,20,7.00
2020,07,01,05,21,7.00
2020,07,01,05,22,6.90
2020,07,01,05,23,6.90
2020,07,01,05,24,6.90
2020,07,01,05,25,6.90
2020,07,01,05,26,6.90
2020,07,01,05,27,6.90
2020,07,01,05,28,6.80
2020,07,01,05,29,6.80
2020,07,01,05,30,6.80
2020,07,01,05,31,6.80
2020,07,01,05,32,6.70
2020,07,01,05,33,6.70
2020,07,01,05,34,6.70
2020,07,01,05,35,6.70
2020,07,01,05,36,6.60
2020,07,01,05,37,6.60
2020,07,01,05,38,6.60
2020,07,01,05,39,6.60
2020,07,01,05,40,6.50
2020,07,01,05,41,6.50
2020,07,01,05,42,6.50
2020,07,01,05,43,6.50
2020,07,01,05,44,6.40
2020,07,01,05,45,6.40
2020,07,01,05,46,6.40
2020,07,01,05,47,6.40
2020,07,01,05,48,6.40
2020,07,01,05,49,6.40
2020,07,01,05,50,6.40
2020,07,01,05,51,6.40
2020,07,01,05,52,6.40
2020,07,01,05,53,6.30
2020,07,01,05,54,6.30
2020,07,01,05,55,6.30
2020,07,01,05,56,6.30
2020,07,01,05,57,6.30
2020,07,01,05,58,6.30
2020,07,01,05,59,6.30
2020,07,01,06,00,6.30
2020,07,01,06,01,6.30
2020,07,01,06,02,6.30
2020,07,01,06,03,6.30
2020,07,01,06,04,6.30
2020,07,01,06,05,6.30
2020,07,01,06,06,6.30
2020,07,01,06,07,6.30
2020,07,01,06,08,6.30
2020,07,01,06,09,6.30
2020,07,01,06,10,6.30
2020,07,01,06,11,6.30
2020,07,01,06,12,6.30
2020,07,01,06,13,6.30
2020,07,01,06,14,6.30
2020,07,01,06,15,6.30
2020,07,01,06,16,6.30
2020,07,01,06,17,6.30
2020,07,01,06,18,6.20
2020,07,01,06,19,6.20
2020,07,01,06,20,6.30
2020,07,01,06,21,6.30
2020,07,01,06,22,6.30
2020,07,01,06,23,6.30
2020,07,01,06,24,6.30
2020,07,01,06,25,6.40
2020,07,01,06,26,6.40
2020,07,01,06,27,6.40
2020,07,01,06,28,6.50
2020,07,01,06,29,6.50
2020,07,01,06,30,6.50
2020,07,01,06,31,6.60
2020,07,01,06,32,6.60
2020,07,01,06,33,6.60
2020,07,01,06,34,6.60
2020,07,01,06,35,6.60
2020,07,01,06,36,6.60
2020,07,01,06,37,6.60
2020,07,01,06,38,6.60
2020,07,01,06,39,6.60
2020,07,01,06,40,6.60
2020,07,01,06,41,6.70
2020,07,01,06,42,6.70
2020,07,01,06,43,6.70
2020,07,01,06,44,6.70
2020,07,01,06,45,6.70
2020,07,01,06,46,6.70
2020,07,01,06,47,6.70
2020,07,01,06,48,6.70
2020,07,01,06,49,6.70
2020,07,01,06,50,6.70
2020,07,01,06,51,6.80
2020,07,01,06,52,6.80
2020,07,01,06,53,6.80
2020,07,01,06,54,6.80
2020,07,01,06,55,6.80
2020,07,01,06,56,6.80
2020,07,01,06,57,6.80
2020,07,01,06,58,6.80
2020,07,01,06,59,6.80
2020,07,01,07,00,6.80
2020,07,01,07,01,6.80
2020,07,01,07,02,6.80
2020,07,01,07,03,6.80
2020,07,01,07,04,6.70
2020,07,01,07,05,6.70
2020,07,01,07,06,6.70
2020,07,01,07,07,6.70
2020,07,01,07,08,6.70
2020,07,01,07,09,6.70
2020,07,01,07,10,6.70
2020,07,01,07,11,6.70
2020,07,01,07,12,6.70
2020,07,01,07,13,6.70
2020,07,01,07,14,6.70
2020,07,01,07,15,6.70
2020,07,01,07,16,6.70
2020,07,01,07,17,6.70
2020,07,01,07,18,6.70
2020,07,01,07,19,6.70
2020,07,01,07,20,6.70
2020,07,01,07,21,6.70
2020,07,01,07,22,6.70
2020,07,01,07,23,6.60
2020,07,01,07,24,6.60
2020,07,01,07,25,6.60
2020,07,01,07,26,6.60
2020,07,01,07,27,6.60
2020,07,01,07,28,6.60
2020,07,01,07,29,6.50
2020,07,01,07,30,6.50
2020,07,01,07,31,6.50
2020,07,01,07,32,6.50
2020,07,01,07,33,6.50
2020,07,01,07,34,6.50
2020,07,01,07,35,6.50
2020,07,01,07,36,6.50
2020,07,01,07,37,6.50
2020,07,01,07,38,6.50
2020,07,01,07,39,6.50
2020,07,01,07,40,6.60
2020,07,01,07,41,6.60
2020,07,01,07,42,6.60
2020,07,01,07,43,6.60
2020,07,01,07,44,6.60
2020,07,01,07,45,6.60
2020,07,01,07,46,6.70
2020,07,01,07,47,6.70
2020,07,01,07,48,6.80
2020,07,01,07,49,6.80
2020,07,01,07,50,6.80
2020,07,01,07,51,6.90
2020,07,01,07,52,7.00
2020,07,01,07,53,7.10
2020,07,01,07,54,7.20
2020,07,01,07,55,7.20
2020,07,01,07,56,7.30
2020,07,01,07,57,7.40
2020,07,01,07,58,7.50
2020,07,01,07,59,7.60
2020,07,01,08,00,7.70
2020,07,01,08,01,7.80
2020,07,01,08,02,7.80
2020,07,01,08,03,8.00
2020,07,01,08,04,8.10
2020,07,01,08,05,8.10
2020,07,01,08,06,8.30
2020,07,01,08,07,8.30
2020,07,01,08,08,8.40
2020,07,01,08,09,8.50
2020,07,01,08,10,8.60
2020,07,01,08,11,8.60
2020,07,01,08,12,8.70
2020,07,01,08,13,8.80
2020,07,01,08,14,8.80
2020,07,01,08,15,8.90
2020,07,01,08,16,9.00
2020,07,01,08,17,9.10
2020,07,01,08,18,9.20
2020,07,01,08,19,9.30
2020,07,01,08,20,9.40
2020,07,01,08,21,9.40
2020,07,01,08,22,9.50
2020,07,01,08,23,9.60
2020,07,01,08,24,9.70
2020,07,01,08,25,9.70
2020,07,01,08,26,9.70
2020,07,01,08,27,9.80
2020,07,01,08,28,9.80
2020,07,01,08,29,9.90
2020,07,01,08,30,9.90
2020,07,01,08,31,9.90
2020,07,01,08,32,10.00
2020,07,01,08,33,10.00
2020,07,01,08,34,10.10
2020,07,01,08,35,10.10
2020,07,01,08,36,10.20
2020,07,01,08,37,10.30
2020,07,01,08,38,10.30
2020,07,01,08,39,10.40
2020,07,01,08,40,10.50
2020,07,01,08,41,10.50
2020,07,01,08,42,10.60
2020,07,01,08,43,10.60
2020,07,01,08,44,10.60
2020,07,01,08,45,10.70
2020,07,01,08,46,10.80
2020,07,01,08,47,10.80
2020,07,01,08,48,10.90
2020,07,01,08,49,10.90
2020,07,01,08,50,11.00
2020,07,01,08,51,11.00
2020,07,01,08,52,11.10
2020,07,01,08,53,11.20
2020,07,01,08,54,11.20
2020,07,01,08,55,11.30
2020,07,01,08,56,11.30
2020,07,01,08,57,11.40
2020,07,01,08,58,11.50
2020,07,01,08,59,11.50
2020,07,01,09,00,11.60
2020,07,01,09,01,11.60
2020,07,01,09,02,11.60
2020,07,01,09,03,11.60
2020,07,01,09,04,11.70
2020,07,01,09,05,11.70
2020,07,01,09,06,11.70
2020,07,01,09,07,11.70
2020,07,01,09,08,11.70
2020,07,01,09,09,11.80
2020,07,01,09,10,11.80
2020,07,01,09,11,11.80
2020,07,01,09,12,11.90
2020,07,01,09,13,11.90
2020,07,01,09,14,11.90
2020,07,01,09,15,12.00
2020,07,01,09,16,12.00
2020,07,01,09,17,12.10
2020,07,01,09,18,12.10
2020,07,01,09,19,12.20
2020,07,01,09,20,12.20
2020,07,01,09,21,12.30
2020,07,01,09,22,12.30
2020,07,01,09,23,12.40
2020,07,01,09,24,12.40
2020,07,01,09,25,12.50
2020,07,01,09,26,12.50
2020,07,01,09,27,12.60
2020,07,01,09,28,12.70
2020,07,01,09,29,12.70
2020,07,01,09,30,12.80
2020,07,01,09,31,12.80
2020,07,01,09,32,12.90
2020,07,01,09,33,12.90
2020,07,01,09,34,13.00
2020,07,01,09,35,13.00
2020,07,01,09,36,13.10
2020,07,01,09,37,13.10
2020,07,01,09,38,13.10
2020,07,01,09,39,13.20
2020,07,01,09,40,13.20
2020,07,01,09,41,13.20
2020,07,01,09,42,13.20
2020,07,01,09,43,13.30
2020,07,01,09,44,13.30
2020,07,01,09,45,13.40
2020,07,01,09,46,13.50
2020,07,01,09,47,13.50
2020,07,01,09,48,13.60
2020,07,01,09,49,13.60
2020,07,01,09,50,13.70
2020,07,01,09,51,13.70
2020,07,01,09,52,13.80
2020,07,01,09,53,13.80
2020,07,01,09,54,13.80
2020,07,01,09,55,13.90
2020,07,01,09,56,13.90
2020,07,01,09,57,13.90
2020,07,01,09,58,13.90
2020,07,01,09,59,13.90
2020,07,01,10,00,14.00
2020,07,01,10,01,14.00
2020,07,01,10,02,14.10
2020,07,01,10,03,14.20
2020,07,01,10,04,14.20
2020,07,01,10,05,14.20
2020,07,01,10,06,14.30
2020,07,01,10,07,14.30
2020,07,01,10,08,14.30
2020,07,01,10,09,14.30
2020,07,01,10,10,14.40
2020,07,01,10,11,14.50
2020,07,01,10,12,14.50
2020,07,01,10,13,14.60
2020,07,01,10,14,14.60
2020,07,01,10,15,14.70
2020,07,01,10,16,14.70
2020,07,01,10,17,14.70
2020,07,01,10,18,14.80
2020,07,01,10,19,14.80
2020,07,01,10,20,14.90
2020,07,01,10,21,14.90
2020,07,01,10,22,14.90
2020,07,01,10,23,15.00
2020,07,01,10,24,15.00
2020,07,01,10,25,15.00
2020,07,01,10,26,15.00
2020,07,01,10,27,15.00
2020,07,01,10,28,15.00
2020,07,01,10,29,15.00
2020,07,01,10,30,15.00
2020,07,01,10,31,15.00
2020,07,01,10,32,15.10
2020,07,01,10,33,15.10
2020,07,01,10,34,15.10
2020,07,01,10,35,15.10
2020,07,01,10,36,15.20
2020,07,01,10,37,15.20
2020,07,01,10,38,15.30
2020,07,01,10,39,15.30
2020,07,01,10,40,15.30
2020,07,01,10,41,15.40
2020,07,01,10,42,15.40
2020,07,01,10,43,15.30
2020,07,01,10,44,15.30
2020,07,01,10,45,15.30
2020,07,01,10,46,15.40
2020,07,01,10,47,15.40
2020,07,01,10,48,15.40
2020,07,01,10,49,15.40
2020,07,01,10,50,15.40
2020,07,01,10,51,15.40
2020,07,01,10,52,15.30
2020,07,01,10,53,15.40
2020,07,01,10,54,15.40
2020,07,01,10,55,15.50
2020,07,01,10,56,15.50
2020,07,01,10,57,15.60
2020,07,01,10,58,15.60
2020,07,01,10,59,15.70
2020,07,01,11,00,15.70
2020,07,01,11,01,15.70
2020,07,01,11,02,15.60
2020,07,01,11,03,15.60
2020,07,01,11,04,15.70
2020,07,01,11,05,15.70
2020,07,01,11,06,15.80
2020,07,01,11,07,15.80
2020,07,01,11,08,15.90
2020,07,01,11,09,15.90
2020,07,01,11,10,16.00
2020,07,01,11,11,16.00
2020,07,01,11,12,15.90
2020,07,01,11,13,15.90
2020,07,01,11,14,15.90
2020,07,01,11,15,15.90
2020,07,01,11,16,15.90
2020,07,01,11,17,16.00
2020,07,01,11,18,16.00
2020,07,01,11,19,16.00
2020,07,01,11,20,16.00
2020,07,01,11,21,16.00
2020,07,01,11,22,16.00
2020,07,01,11,23,16.00
2020,07,01,11,24,15.90
2020,07,01,11,25,15.90
2020,07,01,11,26,15.90
2020,07,01,11,27,15.90
2020,07,01,11,28,15.90
2020,07,01,11,29,15.90
2020,07,01,11,30,16.00
2020,07,01,11,31,16.10
2020,07,01,11,32,16.10
2020,07,01,11,33,16.20
2020,07,01,11,34,16.20
2020,07,01,11,35,16.20
2020,07,01,11,36,16.20
2020,07,01,11,37,16.20
2020,07,01,11,38,16.10
2020,07,01,11,39,16.10
2020,07,01,11,40,16.10
2020,07,01,11,41,16.10
2020,07,01,11,42,16.20
2020,07,01,11,43,16.20
2020,07,01,11,44,16.20
2020,07,01,11,45,16.20
2020,07,01,11,46,16.20
2020,07,01,11,47,16.20
2020,07,01,11,48,16.20
2020,07,01,11,49,16.20
2020,07,01,11,50,16.10
2020,07,01,11,51,16.10
2020,07,01,11,52,16.00
2020,07,01,11,53,16.00
2020,07,01,11,54,15.90
2020,07,01,11,55,15.90
2020,07,01,11,56,16.00
2020,07,01,11,57,16.00
2020,07,01,11,58,16.00
2020,07,01,11,59,16.00
2020,07,01,12,00,16.00
2020,07,01,12,01,16.10
2020,07,01,12,02,16.10
2020,07,01,12,03,16.20
2020,07,01,12,04,16.20
2020,07,01,12,05,16.30
2020,07,01,12,06,16.40
2020,07,01,12,07,16.50
2020,07,01,12,08,16.60
2020,07,01,12,09,16.70
2020,07,01,12,10,16.70
2020,07,01,12,11,16.70
2020,07,01,12,12,16.70
2020,07,01,12,13,16.60
2020,07,01,12,14,16.60
2020,07,01,12,15,16.60
2020,07,01,12,16,16.60
2020,07,01,12,17,16.60
2020,07,01,12,18,16.60
2020,07,01,12,19,16.50
2020,07,01,12,20,16.40
2020,07,01,12,21,16.40
2020,07,01,12,22,16.30
2020,07,01,12,23,16.20
2020,07,01,12,24,16.20
2020,07,01,12,25,16.20
2020,07,01,12,26,16.20
2020,07,01,12,27,16.20
2020,07,01,12,28,16.30
2020,07,01,12,29,16.30
2020,07,01,12,30,16.30
2020,07,01,12,31,16.40
2020,07,01,12,32,16.50
2020,07,01,12,33,16.60
2020,07,01,12,34,16.60
2020,07,01,12,35,16.60
2020,07,01,12,36,16.50
2020,07,01,12,37,16.40
2020,07,01,12,38,16.40
2020,07,01,12,39,16.40
2020,07,01,12,40,16.40
2020,07,01,12,41,16.40
2020,07,01,12,42,16.40
2020,07,01,12,43,16.30
2020,07,01,12,44,16.40
2020,07,01,12,45,16.40
2020,07,01,12,46,16.50
2020,07,01,12,47,16.60
2020,07,01,12,48,16.60
2020,07,01,12,49,16.70
2020,07,01,12,50,16.70
2020,07,01,12,51,16.70
2020,07,01,12,52,16.70
2020,07,01,12,53,16.70
2020,07,01,12,54,16.70
2020,07,01,12,55,16.80
2020,07,01,12,56,16.90
2020,07,01,12,57,16.90
2020,07,01,12,58,17.00
2020,07,01,12,59,17.10
2020,07,01,13,00,17.10
2020,07,01,13,01,17.20
2020,07,01,13,02,17.30
2020,07,01,13,03,17.30
2020,07,01,13,04,17.40
2020,07,01,13,05,17.50
2020,07,01,13,06,17.60
2020,07,01,13,07,17.60
2020,07,01,13,08,17.60
2020,07,01,13,09,17.50
2020,07,01,13,10,17.50
2020,07,01,13,11,17.50
2020,07,01,13,12,17.50
2020,07,01,13,13,17.60
2020,07,01,13,14,17.60
2020,07,01,13,15,17.60
2020,07,01,13,16,17.70
2020,07,01,13,17,17.80
2020,07,01,13,18,17.80
2020,07,01,13,19,17.80
2020,07,01,13,20,17.90
2020,07,01,13,21,17.90
2020,07,01,13,22,17.80
2020,07,01,13,23,17.80
2020,07,01,13,24,17.70
2020,07,01,13,25,17.60
2020,07,01,13,26,17.50
2020,07,01,13,27,17.40
2020,07,01,13,28,17.30
2020,07,01,13,29,17.30
2020,07,01,13,30,17.40
2020,07,01,13,31,17.40
2020,07,01,13,32,17.40
2020,07,01,13,33,17.40
2020,07,01,13,34,17.40
2020,07,01,13,35,17.50
2020,07,01,13,36,17.50
2020,07,01,13,37,17.50
2020,07,01,13,38,17.50
2020,07,01,13,39,17.40
2020,07,01,13,40,17.30
2020,07,01,13,41,17.20
2020,07,01,13,42,17.00
2020,07,01,13,43,16.90
2020,07,01,13,44,16.90
2020,07,01,13,45,16.80
2020,07,01,13,46,16.80
2020,07,01,13,47,16.80
2020,07,01,13,48,16.90
2020,07,01,13,49,16.90
2020,07,01,13,50,16.90
2020,07,01,13,51,17.00
2020,07,01,13,52,17.10
2020,07,01,13,53,17.20
2020,07,01,13,54,17.30
2020,07,01,13,55,17.40
2020,07,01,13,56,17.50
2020,07,01,13,57,17.60
2020,07,01,13,58,17.60
2020,07,01,13,59,17.70
2020,07,01,14,00,17.70
2020,07,01,14,01,17.70
2020,07,01,14,02,17.70
2020,07,01,14,03,17.70
2020,07,01,14,04,17.80
2020,07,01,14,05,17.70
2020,07,01,14,06,17.70
2020,07,01,14,07,17.70
2020,07,01,14,08,17.60
2020,07,01,14,09,17.50
2020,07,01,14,10,17.40
2020,07,01,14,11,17.30
2020,07,01,14,12,17.20
2020,07,01,14,13,17.00
2020,07,01,14,14,16.90
2020,07,01,14,15,16.80
2020,07,01,14,16,16.70
2020,07,01,14,17,16.60
2020,07,01,14,18,16.60
2020,07,01,14,19,16.50
2020,07,01,14,20,16.60
2020,07,01,14,21,16.60
2020,07,01,14,22,16.60
2020,07,01,14,23,16.70
2020,07,01,14,24,16.70
2020,07,01,14,25,16.70
2020,07,01,14,26,16.70
2020,07,01,14,27,16.80
2020,07,01,14,28,16.80
2020,07,01,14,29,16.90
2020,07,01,14,30,17.00
2020,07,01,14,31,17.00
2020,07,01,14,32,17.10
2020,07,01,14,33,17.20
2020,07,01,14,34,17.30
2020,07,01,14,35,17.30
2020,07,01,14,36,17.30
2020,07,01,14,37,17.30
2020,07,01,14,38,17.40
2020,07,01,14,39,17.40
2020,07,01,14,40,17.50
2020,07,01,14,41,17.60
2020,07,01,14,42,17.60
2020,07,01,14,43,17.70
2020,07,01,14,44,17.60
2020,07,01,14,45,17.60
2020,07,01,14,46,17.60
2020,07,01,14,47,17.50
2020,07,01,14,48,17.50
2020,07,01,14,49,17.40
2020,07,01,14,50,17.40
2020,07,01,14,51,17.30
2020,07,01,14,52,17.40
2020,07,01,14,53,17.40
2020,07,01,14,54,17.50
2020,07,01,14,55,17.50
2020,07,01,14,56,17.60
2020,07,01,14,57,17.60
2020,07,01,14,58,17.70
2020,07,01,14,59,17.80
2020,07,01,15,00,17.80
2020,07,01,15,01,17.90
2020,07,01,15,02,18.00
2020,07,01,15,03,18.10
2020,07,01,15,04,18.10
2020,07,01,15,05,18.20
2020,07,01,15,06,18.20
2020,07,01,15,07,18.30
2020,07,01,15,08,18.30
2020,07,01,15,09,18.30
2020,07,01,15,10,18.20
2020,07,01,15,11,18.20
2020,07,01,15,12,18.20
2020,07,01,15,13,18.10
2020,07,01,15,14,18.00
2020,07,01,15,15,18.00
2020,07,01,15,16,17.90
2020,07,01,15,17,17.90
2020,07,01,15,18,17.90
2020,07,01,15,19,17.90
2020,07,01,15,20,17.90
2020,07,01,15,21,17.90
2020,07,01,15,22,17.90
2020,07,01,15,23,17.90
2020,07,01,15,24,18.00
2020,07,01,15,25,18.10
2020,07,01,15,26,18.10
2020,07,01,15,27,18.10
2020,07,01,15,28,18.10
2020,07,01,15,29,18.20
2020,07,01,15,30,18.20
2020,07,01,15,31,18.30
2020,07,01,15,32,18.30
2020,07,01,15,33,18.40
2020,07,01,15,34,18.40
2020,07,01,15,35,18.40
2020,07,01,15,36,18.40
2020,07,01,15,37,18.40
2020,07,01,15,38,18.30
2020,07,01,15,39,18.30
2020,07,01,15,40,18.30
2020,07,01,15,41,18.30
2020,07,01,15,42,18.20
2020,07,01,15,43,18.10
2020,07,01,15,44,18.00
2020,07,01,15,45,17.90
2020,07,01,15,46,17.80
2020,07,01,15,47,17.70
2020,07,01,15,48,17.60
2020,07,01,15,49,17.50
2020,07,01,15,50,17.50
2020,07,01,15,51,17.40
2020,07,01,15,52,17.40
2020,07,01,15,53,17.30
2020,07,01,15,54,17.30
2020,07,01,15,55,17.20
2020,07,01,15,56,17.20
2020,07,01,15,57,17.20
2020,07,01,15,58,17.10
2020,07,01,15,59,17.10
2020,07,01,16,00,17.00
2020,07,01,16,01,17.00
2020,07,01,16,02,16.90
2020,07,01,16,03,16.90
2020,07,01,16,04,17.00
2020,07,01,16,05,17.10
2020,07,01,16,06,17.20
2020,07,01,16,07,17.30
2020,07,01,16,08,17.40
2020,07,01,16,09,17.60
2020,07,01,16,10,17.70
2020,07,01,16,11,17.70
2020,07,01,16,12,17.80
2020,07,01,16,13,17.80
2020,07,01,16,14,17.80
2020,07,01,16,15,17.70
2020,07,01,16,16,17.70
2020,07,01,16,17,17.60
2020,07,01,16,18,17.60
2020,07,01,16,19,17.50
2020,07,01,16,20,17.40
2020,07,01,16,21,17.30
2020,07,01,16,22,17.30
2020,07,01,16,23,17.20
2020,07,01,16,24,17.20
2020,07,01,16,25,17.20
2020,07,01,16,26,17.10
2020,07,01,16,27,17.10
2020,07,01,16,28,17.00
2020,07,01,16,29,17.00
2020,07,01,16,30,16.90
2020,07,01,16,31,16.90
2020,07,01,16,32,16.90
2020,07,01,16,33,16.90
2020,07,01,16,34,16.90
2020,07,01,16,35,16.90
2020,07,01,16,36,16.90
2020,07,01,16,37,16.90
2020,07,01,16,38,16.90
2020,07,01,16,39,17.00
2020,07,01,16,40,17.00
2020,07,01,16,41,17.00
2020,07,01,16,42,17.00
2020,07,01,16,43,17.00
2020,07,01,16,44,17.00
2020,07,01,16,45,17.10
2020,07,01,16,46,17.20
2020,07,01,16,47,17.30
2020,07,01,16,48,17.40
2020,07,01,16,49,17.50
2020,07,01,16,50,17.60
2020,07,01,16,51,17.80
2020,07,01,16,52,17.80
2020,07,01,16,53,17.90
2020,07,01,16,54,18.00
2020,07,01,16,55,18.10
2020,07,01,16,56,18.10
2020,07,01,16,57,18.20
2020,07,01,16,58,18.20
2020,07,01,16,59,18.20
2020,07,01,17,00,18.10
2020,07,01,17,01,18.00
2020,07,01,17,02,17.90
2020,07,01,17,03,17.80
2020,07,01,17,04,17.70
2020,07,01,17,05,17.60
2020,07,01,17,06,17.50
2020,07,01,17,07,17.40
2020,07,01,17,08,17.30
2020,07,01,17,09,17.30
2020,07,01,17,10,17.20
2020,07,01,17,11,17.10
2020,07,01,17,12,17.10
2020,07,01,17,13,17.00
2020,07,01,17,14,17.00
2020,07,01,17,15,16.90
2020,07,01,17,16,16.90
2020,07,01,17,17,16.90
2020,07,01,17,18,16.90
2020,07,01,17,19,16.90
2020,07,01,17,20,16.90
2020,07,01,17,21,16.90
2020,07,01,17,22,16.90
2020,07,01,17,23,17.00
2020,07,01,17,24,17.00
2020,07,01,17,25,17.00
2020,07,01,17,26,17.10
2020,07,01,17,27,17.10
2020,07,01,17,28,17.10
2020,07,01,17,29,17.10
2020,07,01,17,30,17.20
2020,07,01,17,31,17.20
2020,07,01,17,32,17.20
2020,07,01,17,33,17.20